EW7837 Weather Reports


time (UTC)temp
F
wind
direction
speed
knots
gust
knots
rain 1hr
in
rain 24hr
in
rain mn
in
humidity
%
barometer
mb
20260503203053 71 273 0.9 0.0 0.00 0.00 0.00 63 1010.6
20260503201552 71 277 0.0 0.0 0.00 0.00 0.00 63 1010.9
20260503200057 70 281 0.9 0.0 0.00 0.00 0.00 64 1010.9
20260503194549 69 271 0.0 0.0 0.00 0.00 0.00 66 1011.2
20260503193040 69 267 0.9 0.0 0.00 0.00 0.00 67 1011.2
20260503191531 70 261 0.9 0.0 0.00 0.00 0.00 64 1011.1
20260503190015 70 263 0.0 0.0 0.00 0.00 0.00 65 1011.1
20260503184521 71 275 0.9 0.0 0.00 0.00 0.00 64 1011.1
20260503183013 71 264 0.0 0.0 0.00 0.00 0.00 65 1011.0
20260503181510 70 264 0.0 0.0 0.00 0.00 0.00 66 1011.1
20260503180013 70 265 0.0 0.0 0.00 0.00 0.00 69 1011.1
20260503174504 69 265 0.0 0.0 0.00 0.00 0.00 69 1011.1
20260503173006 69 264 0.0 0.0 0.00 0.00 0.00 69 1011.1
20260503171559 68 265 0.0 0.0 0.00 0.00 0.00 70 1011.1
20260503081523 64 264 0.0 0.0 0.00 0.00 0.00 82 1010.6
20260503071519 63 264 0.0 0.0 0.00 0.00 0.00 83 1010.9
20260503060112 63 264 0.0 0.0 0.00 0.00 0.00 84 1010.8
20260503054545 63 264 0.0 0.0 0.00 0.00 0.00 84 1010.8
20260503053044 63 264 0.0 0.0 0.00 0.00 0.00 84 1010.6
20260503051547 62 264 0.0 0.0 0.00 0.00 0.00 84 1010.4
20260503050042 62 264 0.0 0.0 0.00 0.00 0.00 84 1009.9
20260503044529 62 264 0.0 0.0 0.00 0.00 0.00 83 1009.6
20260503043010 63 264 0.0 0.0 0.00 0.00 0.00 83 1009.5
20260503041507 63 264 0.0 0.0 0.00 0.00 0.00 82 1009.1
20260503040005 63 264 0.0 0.0 0.00 0.00 0.00 82 1008.7
20260503034504 63 264 0.0 0.0 0.00 0.00 0.00 82 1008.5
20260503033001 64 264 0.0 0.0 0.00 0.00 0.00 81 1008.3
20260503031531 64 264 0.0 0.0 0.00 0.00 0.00 81 1008.1
20260503030028 64 264 0.0 0.0 0.00 0.00 0.00 81 1008.0
20260503024524 64 264 0.0 0.0 0.00 0.00 0.00 81 1008.1
20260503023023 65 265 0.0 0.0 0.00 0.00 0.00 80 1008.2
20260503021522 65 265 0.0 0.0 0.00 0.00 0.00 79 1008.1
20260503020022 66 264 0.0 0.0 0.00 0.00 0.00 78 1008.0
20260503014552 66 265 0.0 0.0 0.00 0.00 0.00 77 1008.0
20260503013056 67 247 0.0 0.0 0.00 0.00 0.00 76 1008.0
20260503011606 68 253 0.0 0.0 0.00 0.00 0.00 75 1007.9
20260503010117 68 253 0.0 0.0 0.00 0.00 0.00 75 1008.0
20260503004548 68 253 0.0 0.0 0.00 0.00 0.00 74 1008.0
20260503003047 69 259 0.0 0.0 0.00 0.00 0.00 73 1008.0
20260503001546 70 266 0.0 0.0 0.00 0.00 0.00 72 1007.9
20260503000043 72 273 0.0 0.0 0.00 0.00 0.00 69 1007.5
20260502234546 73 277 0.0 0.0 0.00 0.00 0.00 69 1007.9
20260502233043 73 265 0.0 0.0 0.00 0.00 0.00 69 1007.9
20260502231543 73 254 0.0 0.0 0.00 0.00 0.00 69 1008.0
20260502230039 73 255 0.0 0.0 0.00 0.00 0.00 69 1008.0
20260502224540 74 260 0.0 0.0 0.00 0.00 0.00 69 1008.2
20260502223038 73 255 0.9 0.0 0.00 0.00 0.00 70 1008.5
20260502221537 73 246 0.9 0.0 0.00 0.00 0.00 69 1008.8
20260502220034 74 265 0.0 0.0 0.00 0.00 0.00 68 1009.0
20260502214542 74 272 0.0 0.0 0.00 0.00 0.00 68 1009.4
20260502213032 74 265 0.0 0.0 0.00 0.00 0.00 68 1009.5
20260502211530 73 236 0.0 0.0 0.00 0.00 0.00 70 1009.6
20260502210030 74 281 0.0 0.0 0.00 0.00 0.00 69 1009.0
20260502204523 74 279 0.0 0.0 0.00 0.00 0.00 70 1009.4